Content
SEND FEEDBACK

Daily
Averages
Monthly
Summary
Mexico

CANCUN, QUINTANA ROO


Home > North America > Mexico > Quintana Roo
Elevation: 9 meters     Latitude: 21 09N     Longitude: 086 49W

WEATHER
 
SELECT A DAY
Number of Records: 163,905;   Date Range: 1/1/95 - 8/10/14
 
SHARE

PRINT THIS DATA

[ ← Previous Day ]
WEATHER ALMANAC - 23 MARCH, 2013
[ Next Day → ]
[ °F ]   °C
Weather ElementAverageHighLow
Temperature27.3 °C30 °C (12:46 pm)26 °C (1:44 am)
Dewpoint22.3 °C23 °C (11:43 am)21 °C (9:48 pm)
Humidity74 %83 % (7:44 pm)62 % (12:46 pm)
Barometer1009.8 hPa1012.5 hPa (8:44 am)1007.8 hPa (4:42 pm)
Wind Speed29.5 km/h42.6 km/h (9:41 am)
Wind Gust61.2 km/h (1:42 pm)
Weather ElementAverage
Visibility10.6 km
Wind DirectionSSE (155.7 °)

Weather ElementTotal
Precipitation---
Cooling Degree Days9.7 (Base 18.3)
Growing Degree Days18 (Base 10)
Averaged from 23 records on 23 March, 2013
WEATHER CONDITIONS BREAKOUT
WIND DIRECTION BREAKOUT
WEATHER BY HOUR - 23 MARCH, 2013
[ °F ]   °C
Local TimeTemperatureDewpointHumidityBarometerVisibilityWind DirectionWind SpeedGust SpeedPrecipitationEventsConditions
1:44 AM26 °C22 °C78 %1010.2 hPa11.3 kmSSE (150°)18.5 km/hClear
2:46 AM26 °C22 °C78 %1009.8 hPa11.3 kmSE (140°)27.8 km/hPartly Cloudy
3:45 AM26 °C22 °C78 %1009.1 hPa11.3 kmSE (140°)24.1 km/h42.6 km/hScattered Clouds
4:44 AM26 °C22 °C78 %1009.5 hPa11.3 kmSE (140°)37 km/hScattered Clouds
5:43 AM26 °C22 °C78 %1010.5 hPa11.3 kmSSE (150°)22.2 km/h40.7 km/hScattered Clouds
6:42 AM27 °C22 °C74 %1011.5 hPa11.3 kmSSE (150°)29.6 km/hMostly Cloudy
7:49 AM27 °C22 °C74 %1011.9 hPa11.3 kmSSE (150°)29.6 km/hMostly Cloudy
8:44 AM28 °C22 °C70 %1012.5 hPa11.3 kmSSE (150°)33.3 km/hScattered Clouds
9:41 AM29 °C22 °C66 %1011.9 hPa11.3 kmSSE (150°)42.6 km/hScattered Clouds
10:45 AM29 °C22 °C66 %1011.5 hPa11.3 kmSSE (160°)33.3 km/hMostly Cloudy
11:43 AM29 °C23 °C70 %1010.8 hPa11.3 kmSSE (150°)42.6 km/hMostly Cloudy
12:46 PM30 °C22 °C62 %1009.5 hPa11.3 kmSouth (170°)35.2 km/h53.8 km/hScattered Clouds
1:42 PM29 °C23 °C70 %1008.8 hPa9.7 kmSSE (160°)40.7 km/h61.2 km/hScattered Clouds
2:49 PM29 °C23 °C70 %1008.8 hPa9.7 kmSSE (160°)29.6 km/h51.8 km/hScattered Clouds
3:47 PM29 °C22 °C66 %1008.1 hPa9.7 kmSSE (160°)25.9 km/h44.4 km/hScattered Clouds
4:42 PM28 °C22 °C70 %1007.8 hPa9.7 kmSSW (200°)33.3 km/hScattered Clouds
5:49 PM27 °C23 °C79 %1008.5 hPa9.7 kmSSE (160°)31.5 km/hScattered Clouds
6:41 PM27 °C23 °C79 %1008.1 hPa9.7 kmSSE (160°)27.8 km/hMostly Cloudy
7:44 PM26 °C23 °C83 %1008.8 hPa9.7 kmSSE (160°)24.1 km/hScattered Clouds
8:45 PM26 °C22 °C78 %1009.8 hPa9.7 kmSSE (150°)24.1 km/hScattered Clouds
9:48 PM26 °C21 °C74 %1009.5 hPa9.7 kmSSE (150°)20.4 km/hScattered Clouds
10:45 PM26 °C23 °C83 %1009.5 hPa9.7 kmSSE (160°)24.1 km/hMostly Cloudy
11:48 PM26 °C22 °C78 %1009.1 hPa11.3 kmSSE (160°)18.5 km/hScattered Clouds
Hourly data recorded from MMUN, located 0 kilometers away from Cancun, Quintana Roo







STORIES FROM OUR PARTNERS